Retour au catalogue

SL-6 R/B(2)

ActifHEO
NORAD 21121·ROCKET BODY·🇷🇺 Russia

Lancé Feb 15, 1991 depuis Plesetsk Cosmodrome

Loading…

Prochains Passages (prochaines 24 heures)

TLE

FraisSource: Space-Track

Époque: Sep 13, 2026, 21:02 UTC

1 21121U 91012D   26256.87668848  .00000193  00000-0  00000-0 0  9999
2 21121  64.6414 157.6268 6502309 252.2686  30.9211  2.05802491 98953

Suivez SL-6 R/B(2) en temps réel avec AllMySat

Download on the App Store